HAVER LHMR-LHSS

Flight info

Callsign HAVER
Flight time N/A
Altitude 3000
Route FUZESABONY POROSZLO KISKORE TISZAROFF BESENYSZOG SZOLNOK
Aircraft BE36/L-SDFGRY/C

Departure

Time 2026-04-20 16:23
Airport Maklár Airfield (LHMR)

Arrival

Time N/A
Airport Szolnok-Szandai Airfield (LHSS)
Time Latitude Longitude Altitude Speed Heading
2026-04-20 16:02 47.81521 20.41930 425 ft 0 kts 196°
2026-04-20 16:14 47.81520 20.41930 427 ft 2 kts 192°
2026-04-20 16:14 47.81535 20.41968 422 ft 7 kts 57°
2026-04-20 16:15 47.81547 20.42051 421 ft 3 kts 85°
2026-04-20 16:15 47.81547 20.42056 421 ft 3 kts 86°
2026-04-20 16:15 47.81555 20.42146 413 ft 13 kts 81°
2026-04-20 16:15 47.81493 20.42208 415 ft 11 kts 173°
2026-04-20 16:16 47.81419 20.42224 413 ft 12 kts 168°
2026-04-20 16:16 47.81343 20.42242 411 ft 10 kts 171°
2026-04-20 16:16 47.81271 20.42257 409 ft 11 kts 172°
2026-04-20 16:16 47.81206 20.42273 409 ft 10 kts 156°
2026-04-20 16:17 47.81131 20.42298 412 ft 13 kts 166°
2026-04-20 16:17 47.81026 20.42327 409 ft 16 kts 170°
2026-04-20 16:17 47.80941 20.42351 408 ft 9 kts 169°
2026-04-20 16:17 47.80860 20.42374 409 ft 14 kts 169°
2026-04-20 16:18 47.80798 20.42407 410 ft 1 kts 96°
2026-04-20 16:18 47.80790 20.42412 410 ft 4 kts 207°
2026-04-20 16:18 47.80787 20.42406 410 ft 0 kts 264°
2026-04-20 16:21 47.80787 20.42405 410 ft 0 kts 264°
2026-04-20 16:22 47.80799 20.42357 409 ft 10 kts 326°
2026-04-20 16:22 47.80838 20.42331 409 ft 0 kts 350°
2026-04-20 16:23 47.80859 20.42326 409 ft 20 kts 351°
2026-04-20 16:23 47.81240 20.42221 1074 ft 137 kts 348°
2026-04-20 16:23 47.81634 20.42134 11142 ft 134 kts 348°